Olivia, MN

6:36 AM CDT on May 23, 2017 (GMT -0500)
Olivia Regional

Weather History for KOVL - December, 2012

Change the Weather History Date:

Monday, December 17, 2012

  Actual Average (KRWF) Record (KRWF)
Temperature  
Mean Temperature 22 °F -  
Max Temperature 24 °F 25 °F 58 °F (1939)
Min Temperature 21 °F 11 °F -20 °F (1953)
Degree Days  
Heating Degree Days 42    
Moisture  
Dew Point 20 °F    
Average Humidity 93    
Maximum Humidity 93    
Minimum Humidity 86    
Precipitation  
Precipitation 0.00 in - - ()
Sea Level Pressure  
Sea Level Pressure 29.72 in    
Wind  
Wind Speed 1 mph (ESE)    
Max Wind Speed 7 mph    
Max Gust Speed -    
Visibility 4 miles    
Events Fog , Snow    
Averages and records for this station are not official NWS values.
T = Trace of Precipitation, MM = Missing Value Source: NWS Daily Summary

Daily Weather History Graph

Daily Weather History Graph

Search for Another Location

Airport or City:

Trip Planner

Search our weather history database for the weather conditions in past years. The results will help you decide how hot, cold, wet, or windy it might be!

Date:

Astronomy

Dec. 17, 2012 Rise Set
Actual Time 7:52 AM CST 4:40 PM CST
Civil Twilight 7:18 AM CST 5:14 PM CST
Nautical Twilight 6:41 AM CST 5:51 PM CST
Astronomical Twilight 6:06 AM CST 6:27 PM CST
Moon 10:50 AM CST (12/17) 10:15 PM CST (12/17)
Length of Visible Light 9h 55m
Length of Day
8h 48m
Waxing Crescent, 25% of the Moon is Illuminated
Dec 17
Waxing Crescent
Dec 19
First Quarter
Dec 28
Full
Jan 4
Last Quarter
Jan 11
New

Hourly Weather History & Observations

Time (CST) Temp. Windchill Dew Point Humidity Pressure Visibility Wind Dir Wind Speed Gust Speed Precip Events Conditions
12:10 AM 21.2 °F - 19.4 °F 93% 29.81 in 5.0 mi Calm Calm - N/A   Overcast
12:31 AM 21.2 °F - 19.4 °F 93% 29.80 in 5.0 mi Calm Calm - N/A   Overcast
12:50 AM 21.2 °F 16.4 °F 19.4 °F 93% 29.79 in 4.0 mi North 3.5 mph - N/A   Overcast
1:11 AM 21.2 °F 16.4 °F 19.4 °F 93% 29.79 in 2.5 mi NNW 3.5 mph - N/A   Overcast
1:31 AM 21.2 °F 14.9 °F 19.4 °F 93% 29.78 in 1.8 mi NNW 4.6 mph - N/A   Overcast
1:51 AM 21.2 °F - 19.4 °F 93% 29.79 in 3.0 mi Calm Calm - N/A   Overcast
2:11 AM 21.2 °F - 19.4 °F 93% 29.79 in 2.0 mi Calm Calm - N/A   Overcast
2:31 AM 21.2 °F - 19.4 °F 93% 29.77 in 1.5 mi Calm Calm - N/A   Overcast
2:51 AM 21.2 °F - 19.4 °F 93% 29.77 in 1.2 mi Calm Calm - N/A   Overcast
3:11 AM 21.2 °F - 19.4 °F 93% 29.77 in 1.2 mi Calm Calm - N/A   Overcast
3:31 AM 21.2 °F - 19.4 °F 93% 29.77 in 1.0 mi Calm Calm - N/A   Overcast
3:51 AM 21.2 °F - 19.4 °F 93% 29.77 in 0.8 mi Calm Calm - N/A   Overcast
4:10 AM 21.2 °F - 19.4 °F 93% 29.76 in 0.8 mi Calm Calm - N/A   Overcast
4:31 AM 21.2 °F 16.4 °F 19.4 °F 93% 29.75 in 0.8 mi NNE 3.5 mph - N/A   Overcast
4:51 AM 21.2 °F - 19.4 °F 93% 29.74 in 0.8 mi Calm Calm - N/A   Overcast
5:11 AM 21.2 °F - 19.4 °F 93% 29.75 in 0.8 mi Calm Calm - N/A   Overcast
5:31 AM 21.2 °F - 19.4 °F 93% 29.75 in 1.0 mi Calm Calm - N/A   Overcast
5:51 AM 21.2 °F - 19.4 °F 93% 29.75 in 1.0 mi Calm Calm - N/A   Overcast
6:11 AM 21.2 °F - 19.4 °F 93% 29.75 in 0.8 mi Calm Calm - N/A   Overcast
6:31 AM 21.2 °F - 19.4 °F 93% 29.75 in 0.8 mi Calm Calm - N/A   Overcast
6:51 AM 21.2 °F - 19.4 °F 93% 29.76 in 1.5 mi Calm Calm - N/A   Overcast
7:11 AM 21.2 °F - 19.4 °F 93% 29.75 in 1.5 mi Calm Calm - N/A   Overcast
7:31 AM 21.2 °F - 19.4 °F 93% 29.75 in 1.2 mi Calm Calm - N/A   Overcast
7:51 AM 21.2 °F - 19.4 °F 93% 29.76 in 0.8 mi Calm Calm - N/A   Overcast
8:11 AM 21.2 °F - 19.4 °F 93% 29.75 in 1.5 mi Calm Calm - N/A   Overcast
8:31 AM 21.2 °F - 19.4 °F 93% 29.75 in 1.5 mi Calm Calm - N/A   Overcast
8:50 AM 21.2 °F - 19.4 °F 93% 29.75 in 0.5 mi Calm Calm - N/A Fog Light Freezing Fog
9:11 AM 21.2 °F - 19.4 °F 93% 29.75 in 0.2 mi Calm Calm - N/A Fog Light Freezing Fog
9:31 AM 21.2 °F - 19.4 °F 93% 29.75 in 0.2 mi Calm Calm - N/A Fog Light Freezing Fog
9:51 AM 21.2 °F - 19.4 °F 93% 29.74 in 0.2 mi Calm Calm - N/A Fog Light Freezing Fog
10:11 AM 21.2 °F - 19.4 °F 93% 29.74 in 1.8 mi Calm Calm - N/A   Overcast
10:30 AM 21.2 °F - 19.4 °F 93% 29.74 in 4.0 mi Calm Calm - N/A   Overcast
10:51 AM 21.2 °F - 19.4 °F 93% 29.74 in 3.0 mi Calm Calm - N/A   Overcast
11:11 AM 21.2 °F - 19.4 °F 93% 29.73 in 4.0 mi Calm Calm - N/A   Overcast
11:31 AM 21.2 °F - 19.4 °F 93% 29.72 in 4.0 mi Calm Calm - N/A   Overcast
11:51 AM 21.2 °F - 19.4 °F 93% 29.72 in 4.0 mi Calm Calm - N/A   Overcast
12:11 PM 21.2 °F - 19.4 °F 93% 29.71 in 4.0 mi Calm Calm - N/A   Overcast
12:31 PM 23.0 °F - 19.4 °F 86% 29.71 in 4.0 mi Calm Calm - N/A   Overcast
12:51 PM 23.0 °F - 21.2 °F 93% 29.70 in 5.0 mi Calm Calm - N/A   Overcast
1:10 PM 23.0 °F - 21.2 °F 93% 29.68 in 5.0 mi Calm Calm - N/A   Overcast
1:31 PM 23.0 °F - 21.2 °F 93% 29.68 in 5.0 mi Calm Calm - N/A   Overcast
1:51 PM 23.0 °F - 21.2 °F 93% 29.67 in 7.0 mi Calm Calm - N/A   Overcast
2:11 PM 23.0 °F - 21.2 °F 93% 29.67 in 7.0 mi Calm Calm - N/A   Overcast
2:30 PM 23.0 °F - 21.2 °F 93% 29.67 in 7.0 mi Calm Calm - N/A   Overcast
2:51 PM 23.0 °F - 21.2 °F 93% 29.67 in 7.0 mi Calm Calm - N/A   Overcast
3:11 PM 23.0 °F - 21.2 °F 93% 29.67 in 7.0 mi Calm Calm - N/A   Overcast
3:31 PM 23.0 °F - 21.2 °F 93% 29.68 in 10.0 mi Calm Calm - N/A   Overcast
3:50 PM 23.0 °F - 21.2 °F 93% 29.67 in 7.0 mi Calm Calm - N/A   Overcast
6:31 PM 23.0 °F 14.7 °F 21.2 °F 93% 29.68 in 3.0 mi ESE 6.9 mph - N/A Snow Light Snow
6:51 PM 23.0 °F 17.0 °F 21.2 °F 93% 29.67 in 4.0 mi ESE 4.6 mph - N/A Snow Light Snow
7:11 PM 23.0 °F 17.0 °F 21.2 °F 93% 29.67 in 4.0 mi ESE 4.6 mph - N/A Snow Light Snow
7:31 PM 23.0 °F 15.8 °F 21.2 °F 93% 29.67 in 7.0 mi ESE 5.8 mph - N/A Snow Light Snow
7:51 PM 23.0 °F 15.8 °F 21.2 °F 93% 29.67 in 7.0 mi ESE 5.8 mph - N/A Snow Light Snow
8:11 PM 23.0 °F 15.8 °F 21.2 °F 93% 29.67 in 5.0 mi ESE 5.8 mph - N/A Snow Light Snow
8:31 PM 23.0 °F 15.8 °F 21.2 °F 93% 29.67 in 4.0 mi ESE 5.8 mph - N/A Snow Light Snow
8:51 PM 23.0 °F 17.0 °F 21.2 °F 93% 29.67 in 4.0 mi ESE 4.6 mph - N/A Snow Light Snow
9:11 PM 23.0 °F - 21.2 °F 93% 29.67 in 5.0 mi Calm Calm - N/A Snow Light Snow
9:31 PM 23.0 °F 17.0 °F 21.2 °F 93% 29.67 in 7.0 mi ESE 4.6 mph - N/A Snow Light Snow
9:51 PM 23.0 °F 17.0 °F 21.2 °F 93% 29.67 in 7.0 mi SE 4.6 mph - N/A Snow Light Snow
10:11 PM 23.0 °F 17.0 °F 21.2 °F 93% 29.67 in 7.0 mi ESE 4.6 mph - N/A   Overcast
10:31 PM 24.8 °F 17.9 °F 21.2 °F 86% 29.66 in 7.0 mi ESE 5.8 mph - N/A   Overcast
10:50 PM 24.8 °F 19.1 °F 21.2 °F 86% 29.66 in 7.0 mi ESE 4.6 mph - N/A   Overcast
11:11 PM 24.8 °F 17.9 °F 23.0 °F 93% 29.65 in 7.0 mi ESE 5.8 mph - N/A   Overcast
11:31 PM 24.8 °F 17.9 °F 23.0 °F 93% 29.64 in 7.0 mi ESE 5.8 mph - N/A   Overcast
11:50 PM 24.8 °F 16.9 °F 23.0 °F 93% 29.64 in 7.0 mi ESE 6.9 mph - N/A   Overcast